| time (UTC) | temp F | wind direction | speed MPH | gust MPH | rain 1hr in | rain 24hr in | rain mn in | humidity % | barometer mb |
| 20260506172503 | 57 | 282 | 2.0 | 9.0 | 0.00 | 0.00 | 0.00 | 87 | 1010.9 |
| 20260506172003 | 57 | 214 | 3.0 | 9.0 | 0.00 | 0.00 | 0.00 | 87 | 1010.7 |
| 20260506171508 | 57 | 178 | 2.0 | 8.0 | 0.00 | 0.00 | 0.00 | 86 | 1010.8 |
| 20260506171004 | 57 | 228 | 3.0 | 15.0 | 0.00 | 0.00 | 0.00 | 85 | 1010.9 |
| 20260506170505 | 58 | 254 | 2.0 | 15.0 | 0.00 | 0.00 | 0.00 | 84 | 1010.9 |
| 20260506170015 | 58 | 138 | 4.0 | 11.0 | 0.00 | 0.00 | 0.00 | 84 | 1010.9 |
| 20260506165503 | 58 | 244 | 3.0 | 11.0 | 0.00 | 0.00 | 0.00 | 84 | 1010.9 |
| 20260506165003 | 58 | 144 | 2.0 | 10.0 | 0.00 | 0.00 | 0.00 | 84 | 1011.0 |
| 20260506164504 | 59 | 189 | 4.0 | 11.0 | 0.00 | 0.00 | 0.00 | 83 | 1011.0 |
| 20260506164005 | 59 | 259 | 3.0 | 11.0 | 0.00 | 0.00 | 0.00 | 82 | 1011.1 |
| 20260506163503 | 59 | 180 | 4.0 | 10.0 | 0.00 | 0.00 | 0.00 | 81 | 1011.1 |
| 20260506163008 | 59 | 287 | 3.0 | 10.0 | 0.00 | 0.00 | 0.00 | 81 | 1011.1 |
| 20260506162503 | 59 | 111 | 1.0 | 11.0 | 0.00 | 0.00 | 0.00 | 82 | 1011.2 |
| 20260506162005 | 59 | 248 | 5.0 | 11.0 | 0.00 | 0.00 | 0.00 | 82 | 1011.2 |
| 20260506161515 | 59 | 246 | 2.0 | 14.0 | 0.00 | 0.00 | 0.00 | 82 | 1011.2 |
| 20260506161007 | 59 | 168 | 3.0 | 14.0 | 0.00 | 0.00 | 0.00 | 82 | 1011.3 |
| 20260506160504 | 59 | 215 | 3.0 | 8.0 | 0.00 | 0.00 | 0.00 | 82 | 1011.3 |
| 20260506160010 | 59 | 271 | 2.0 | 12.0 | 0.00 | 0.00 | 0.00 | 81 | 1011.3 |
| 20260506155505 | 59 | 298 | 2.0 | 13.0 | 0.00 | 0.00 | 0.00 | 81 | 1011.4 |
| 20260506155003 | 60 | 209 | 3.0 | 13.0 | 0.00 | 0.00 | 0.00 | 81 | 1011.5 |
| 20260506154505 | 60 | 261 | 2.0 | 11.0 | 0.00 | 0.00 | 0.00 | 80 | 1011.4 |
| 20260506154005 | 60 | 200 | 2.0 | 10.0 | 0.00 | 0.00 | 0.00 | 80 | 1011.7 |
| 20260506153504 | 60 | 211 | 1.0 | 10.0 | 0.00 | 0.00 | 0.00 | 80 | 1011.8 |
| 20260506153010 | 60 | 211 | 2.0 | 10.0 | 0.00 | 0.00 | 0.00 | 81 | 1011.9 |
| 20260506152503 | 60 | 220 | 4.0 | 10.0 | 0.00 | 0.00 | 0.00 | 81 | 1012.0 |
| 20260506152007 | 60 | 281 | 2.0 | 14.0 | 0.00 | 0.00 | 0.00 | 81 | 1011.9 |
| 20260506151516 | 60 | 249 | 4.0 | 19.0 | 0.00 | 0.00 | 0.00 | 81 | 1011.8 |
| 20260506151007 | 59 | 285 | 5.0 | 19.0 | 0.00 | 0.00 | 0.00 | 81 | 1011.8 |
| 20260506150505 | 59 | 212 | 4.0 | 12.0 | 0.00 | 0.00 | 0.00 | 82 | 1011.6 |
| 20260506150004 | 59 | 233 | 1.0 | 12.0 | 0.00 | 0.00 | 0.00 | 82 | 1011.8 |
| 20260506145503 | 59 | 206 | 4.0 | 12.0 | 0.00 | 0.00 | 0.00 | 82 | 1011.7 |
| 20260506145004 | 59 | 185 | 2.0 | 11.0 | 0.00 | 0.00 | 0.00 | 81 | 1011.9 |
| 20260506144506 | 59 | 236 | 3.0 | 11.0 | 0.00 | 0.00 | 0.00 | 81 | 1011.9 |
| 20260506144004 | 60 | 227 | 2.0 | 12.0 | 0.00 | 0.00 | 0.00 | 80 | 1012.1 |
| 20260506143505 | 60 | 188 | 2.0 | 14.0 | 0.00 | 0.00 | 0.00 | 79 | 1012.2 |
| 20260506143011 | 61 | 208 | 0.0 | 14.0 | 0.00 | 0.00 | 0.00 | 78 | 1012.2 |
| 20260506142507 | 62 | 184 | 3.0 | 9.0 | 0.00 | 0.00 | 0.00 | 79 | 1012.1 |
| 20260506142007 | 61 | 229 | 3.0 | 9.0 | 0.00 | 0.00 | 0.00 | 79 | 1012.1 |
| 20260506141520 | 61 | 148 | 2.0 | 8.0 | 0.00 | 0.00 | 0.00 | 78 | 1012.1 |
| 20260506141011 | 62 | 318 | 2.0 | 8.0 | 0.00 | 0.00 | 0.00 | 79 | 1012.1 |
| 20260506140503 | 61 | 312 | 0.0 | 8.0 | 0.00 | 0.00 | 0.00 | 80 | 1012.3 |
| 20260506140005 | 60 | 238 | 1.0 | 10.0 | 0.00 | 0.00 | 0.00 | 81 | 1012.2 |
| 20260506135503 | 60 | 226 | 3.0 | 9.0 | 0.00 | 0.00 | 0.00 | 80 | 1012.3 |
| 20260506135003 | 60 | 286 | 2.0 | 9.0 | 0.00 | 0.00 | 0.00 | 80 | 1012.2 |
| 20260506134509 | 60 | 207 | 2.0 | 9.0 | 0.00 | 0.00 | 0.00 | 80 | 1012.2 |
| 20260506134009 | 60 | 238 | 2.0 | 9.0 | 0.00 | 0.00 | 0.00 | 80 | 1012.1 |
| 20260506133506 | 60 | 225 | 2.0 | 7.0 | 0.00 | 0.00 | 0.00 | 81 | 1012.1 |
| 20260506133014 | 60 | 319 | 2.0 | 10.0 | 0.00 | 0.00 | 0.00 | 82 | 1012.1 |
| 20260506132506 | 59 | 352 | 1.0 | 10.0 | 0.00 | 0.00 | 0.00 | 82 | 1012.1 |
| 20260506132013 | 59 | 238 | 2.0 | 8.0 | 0.00 | 0.00 | 0.00 | 82 | 1012.0 |
| 20260506131522 | 59 | 246 | 2.0 | 10.0 | 0.00 | 0.00 | 0.00 | 83 | 1012.0 |
| 20260506131008 | 58 | 168 | 3.0 | 12.0 | 0.00 | 0.00 | 0.00 | 82 | 1012.1 |
| 20260506130504 | 59 | 236 | 4.0 | 12.0 | 0.00 | 0.00 | 0.00 | 81 | 1012.1 |
| 20260506130006 | 59 | 236 | 0.0 | 11.0 | 0.00 | 0.00 | 0.00 | 82 | 1011.9 |
| 20260506125504 | 60 | 167 | 0.0 | 9.0 | 0.00 | 0.00 | 0.00 | 82 | 1012.0 |
| 20260506125004 | 60 | 200 | 2.0 | 9.0 | 0.00 | 0.00 | 0.00 | 82 | 1012.1 |
| 20260506124512 | 60 | 241 | 2.0 | 10.0 | 0.00 | 0.00 | 0.00 | 82 | 1012.1 |
| 20260506124004 | 59 | 294 | 0.0 | 10.0 | 0.00 | 0.00 | 0.00 | 82 | 1012.2 |
| 20260506123508 | 59 | 188 | 0.0 | 11.0 | 0.00 | 0.00 | 0.00 | 83 | 1012.2 |
| 20260506123022 | 59 | 270 | 2.0 | 11.0 | 0.00 | 0.00 | 0.00 | 82 | 1012.4 |
| 20260506122509 | 59 | 263 | 3.0 | 8.0 | 0.00 | 0.00 | 0.00 | 81 | 1012.5 |
| 20260506122006 | 60 | 295 | 1.0 | 7.0 | 0.00 | 0.00 | 0.00 | 82 | 1012.5 |
| 20260506121522 | 59 | 250 | 2.0 | 14.0 | 0.00 | 0.00 | 0.00 | 82 | 1012.4 |
| 20260506121003 | 59 | 257 | 4.0 | 9.0 | 0.00 | 0.00 | 0.00 | 83 | 1012.3 |
| 20260506120504 | 59 | 197 | 2.0 | 11.0 | 0.00 | 0.00 | 0.00 | 83 | 1012.3 |
| 20260506120009 | 59 | 225 | 2.0 | 11.0 | 0.00 | 0.00 | 0.00 | 83 | 1012.3 |
| 20260506115505 | 59 | 207 | 3.0 | 6.0 | 0.00 | 0.00 | 0.00 | 83 | 1012.1 |
| 20260506115005 | 59 | 257 | 1.0 | 11.0 | 0.00 | 0.00 | 0.00 | 84 | 1012.2 |
| 20260506114516 | 58 | 250 | 1.0 | 11.0 | 0.00 | 0.00 | 0.00 | 84 | 1012.1 |
| 20260506114007 | 59 | 188 | 2.0 | 10.0 | 0.00 | 0.00 | 0.00 | 84 | 1012.1 |
| 20260506113508 | 58 | 253 | 2.0 | 10.0 | 0.00 | 0.00 | 0.00 | 85 | 1012.1 |
| 20260506113022 | 58 | 252 | 3.0 | 8.0 | 0.00 | 0.00 | 0.00 | 85 | 1012.2 |
| 20260506112511 | 58 | 272 | 1.0 | 4.0 | 0.00 | 0.00 | 0.00 | 86 | 1012.3 |
| 20260506112010 | 58 | 250 | 1.0 | 9.0 | 0.00 | 0.00 | 0.00 | 86 | 1012.2 |
| 20260506111526 | 57 | 235 | 1.0 | 9.0 | 0.00 | 0.00 | 0.00 | 86 | 1012.2 |
| 20260506111003 | 57 | 251 | 0.0 | 9.0 | 0.00 | 0.00 | 0.00 | 87 | 1012.4 |
| 20260506110504 | 57 | 184 | 1.0 | 9.0 | 0.00 | 0.00 | 0.00 | 86 | 1012.2 |
| 20260506110008 | 57 | 248 | 2.0 | 11.0 | 0.00 | 0.00 | 0.00 | 86 | 1012.1 |
| 20260506105504 | 57 | 251 | 2.0 | 11.0 | 0.00 | 0.00 | 0.00 | 87 | 1012.2 |
| 20260506105009 | 57 | 163 | 2.0 | 6.0 | 0.00 | 0.00 | 0.00 | 87 | 1012.2 |
| 20260506104518 | 57 | 174 | 1.0 | 6.0 | 0.00 | 0.00 | 0.00 | 87 | 1012.1 |
| 20260506104007 | 57 | 231 | 2.0 | 6.0 | 0.00 | 0.00 | 0.00 | 88 | 1012.0 |
| 20260506103509 | 57 | 284 | 1.0 | 8.0 | 0.00 | 0.00 | 0.00 | 88 | 1012.1 |
| 20260506103028 | 56 | 312 | 2.0 | 9.0 | 0.00 | 0.00 | 0.00 | 88 | 1012.2 |
| 20260506102512 | 56 | 248 | 2.0 | 10.0 | 0.00 | 0.00 | 0.00 | 88 | 1012.1 |
| 20260506102011 | 56 | 227 | 2.0 | 10.0 | 0.00 | 0.00 | 0.00 | 88 | 1012.1 |
| 20260506101509 | 56 | 243 | 2.0 | 7.0 | 0.00 | 0.00 | 0.00 | 88 | 1012.1 |
| 20260506101002 | 56 | 251 | 0.0 | 4.0 | 0.00 | 0.00 | 0.00 | 88 | 1012.0 |
| 20260506100503 | 56 | 225 | 1.0 | 4.0 | 0.00 | 0.00 | 0.00 | 88 | 1012.2 |
| 20260506100014 | 56 | 262 | 1.0 | 6.0 | 0.00 | 0.00 | 0.00 | 88 | 1012.1 |
| 20260506095507 | 56 | 258 | 1.0 | 12.0 | 0.00 | 0.00 | 0.00 | 88 | 1012.1 |
| 20260506095008 | 56 | 235 | 2.0 | 12.0 | 0.00 | 0.00 | 0.00 | 88 | 1012.0 |
| 20260506094530 | 56 | 151 | 1.0 | 8.0 | 0.00 | 0.00 | 0.00 | 88 | 1011.9 |
| 20260506094009 | 56 | 157 | 2.0 | 7.0 | 0.00 | 0.00 | 0.00 | 88 | 1012.0 |
| 20260506093509 | 56 | 270 | 2.0 | 7.0 | 0.00 | 0.00 | 0.00 | 88 | 1012.0 |
| 20260506093040 | 56 | 232 | 0.0 | 7.0 | 0.00 | 0.00 | 0.00 | 88 | 1012.0 |
| 20260506092510 | 56 | 254 | 1.0 | 6.0 | 0.00 | 0.00 | 0.00 | 88 | 1012.0 |
| 20260506092014 | 56 | 252 | 1.0 | 6.0 | 0.00 | 0.00 | 0.00 | 88 | 1012.0 |
| 20260506091512 | 56 | 254 | 1.0 | 4.0 | 0.00 | 0.00 | 0.00 | 88 | 1012.0 |
| 20260506091002 | 56 | 286 | 2.0 | 4.0 | 0.00 | 0.00 | 0.00 | 88 | 1012.2 |
| 20260506090506 | 56 | 234 | 0.0 | 5.0 | 0.00 | 0.00 | 0.00 | 88 | 1012.1 |
| 20260506090018 | 56 | 273 | 0.0 | 7.0 | 0.00 | 0.00 | 0.00 | 88 | 1012.2 |
| 20260506085507 | 56 | 259 | 2.0 | 7.0 | 0.00 | 0.00 | 0.00 | 88 | 1012.2 |
| 20260506085007 | 56 | 323 | 2.0 | 6.0 | 0.00 | 0.00 | 0.00 | 88 | 1012.3 |
| 20260506084521 | 56 | 250 | 1.0 | 6.0 | 0.00 | 0.00 | 0.00 | 87 | 1012.2 |
| 20260506084009 | 57 | 251 | 2.0 | 5.0 | 0.00 | 0.00 | 0.00 | 87 | 1012.3 |
| 20260506083509 | 57 | 163 | 2.0 | 5.0 | 0.00 | 0.00 | 0.00 | 87 | 1012.4 |
| 20260506083025 | 57 | 243 | 0.0 | 7.0 | 0.00 | 0.00 | 0.00 | 87 | 1012.3 |
| 20260506082513 | 57 | 360 | 1.0 | 8.0 | 0.00 | 0.00 | 0.00 | 87 | 1012.3 |
| 20260506082003 | 57 | 317 | 1.0 | 11.0 | 0.00 | 0.00 | 0.00 | 87 | 1012.4 |
| 20260506081512 | 57 | 275 | 2.0 | 11.0 | 0.00 | 0.00 | 0.00 | 86 | 1012.5 |
| 20260506081006 | 57 | 281 | 1.0 | 8.0 | 0.00 | 0.00 | 0.00 | 86 | 1012.5 |
| 20260506080508 | 57 | 232 | 1.0 | 6.0 | 0.00 | 0.00 | 0.00 | 86 | 1012.4 |
| 20260506073514 | 57 | 256 | 1.0 | 10.0 | 0.00 | 0.00 | 0.00 | 85 | 1012.6 |
| 20260506073028 | 57 | 243 | 3.0 | 10.0 | 0.00 | 0.00 | 0.00 | 85 | 1012.7 |
| 20260506072512 | 57 | 315 | 2.0 | 7.0 | 0.00 | 0.00 | 0.00 | 85 | 1012.7 |
| 20260506072006 | 57 | 331 | 2.0 | 6.0 | 0.00 | 0.00 | 0.00 | 85 | 1012.7 |
| 20260506071516 | 57 | 238 | 1.0 | 10.0 | 0.00 | 0.00 | 0.00 | 84 | 1012.8 |
| 20260506071008 | 57 | 247 | 1.0 | 10.0 | 0.00 | 0.00 | 0.00 | 84 | 1012.8 |
| 20260506070506 | 57 | 242 | 2.0 | 7.0 | 0.00 | 0.00 | 0.00 | 84 | 1012.6 |
| 20260506062511 | 57 | 259 | 1.0 | 7.0 | 0.00 | 0.00 | 0.00 | 84 | 1012.8 |
| 20260506062008 | 57 | 195 | 1.0 | 7.0 | 0.00 | 0.00 | 0.00 | 84 | 1012.8 |
| 20260506061521 | 57 | 200 | 2.0 | 7.0 | 0.00 | 0.00 | 0.00 | 83 | 1012.7 |
| 20260506061012 | 57 | 246 | 2.0 | 6.0 | 0.00 | 0.00 | 0.00 | 83 | 1012.5 |
| 20260506060511 | 57 | 185 | 2.0 | 6.0 | 0.00 | 0.00 | 0.00 | 83 | 1012.5 |
| 20260506051004 | 58 | 210 | 1.0 | 8.0 | 0.00 | 0.00 | 0.00 | 82 | 1012.9 |
| 20260506050503 | 58 | 221 | 0.0 | 9.0 | 0.00 | 0.00 | 0.00 | 82 | 1012.8 |
| 20260506045004 | 58 | 223 | 2.0 | 10.0 | 0.00 | 0.00 | 0.00 | 81 | 1013.0 |
| 20260506044520 | 59 | 229 | 1.0 | 10.0 | 0.00 | 0.00 | 0.00 | 81 | 1012.9 |
| 20260506044005 | 58 | 290 | 2.0 | 7.0 | 0.00 | 0.00 | 0.00 | 81 | 1013.1 |
| 20260506043508 | 58 | 256 | 3.0 | 10.0 | 0.00 | 0.00 | 0.00 | 81 | 1013.0 |
| 20260506043016 | 58 | 269 | 1.0 | 10.0 | 0.00 | 0.00 | 0.00 | 81 | 1013.0 |
| 20260506042506 | 58 | 294 | 2.0 | 6.0 | 0.00 | 0.00 | 0.00 | 81 | 1013.0 |
| 20260506042011 | 58 | 24 | 1.0 | 6.0 | 0.00 | 0.00 | 0.00 | 81 | 1013.0 |
| 20260506041525 | 58 | 130 | 2.0 | 7.0 | 0.00 | 0.00 | 0.00 | 81 | 1013.0 |
| 20260506041003 | 58 | 242 | 1.0 | 8.0 | 0.00 | 0.00 | 0.00 | 81 | 1013.1 |
| 20260506040504 | 58 | 281 | 2.0 | 8.0 | 0.00 | 0.00 | 0.00 | 81 | 1013.1 |
| 20260506040006 | 58 | 240 | 2.0 | 6.0 | 0.00 | 0.00 | 0.00 | 81 | 1013.0 |
| 20260506035506 | 58 | 201 | 2.0 | 7.0 | 0.00 | 0.00 | 0.00 | 81 | 1013.0 |
| 20260506035006 | 58 | 138 | 0.0 | 9.0 | 0.00 | 0.00 | 0.00 | 81 | 1013.1 |
| 20260506034515 | 58 | 195 | 2.0 | 10.0 | 0.00 | 0.00 | 0.00 | 81 | 1013.2 |
| 20260506034008 | 58 | 232 | 2.0 | 10.0 | 0.00 | 0.00 | 0.00 | 81 | 1013.2 |
| 20260506033507 | 58 | 190 | 1.0 | 9.0 | 0.00 | 0.00 | 0.00 | 81 | 1013.2 |
| 20260506033017 | 58 | 187 | 2.0 | 10.0 | 0.00 | 0.00 | 0.00 | 81 | 1013.2 |
| 20260506032507 | 58 | 239 | 1.0 | 10.0 | 0.00 | 0.00 | 0.00 | 81 | 1013.2 |
| 20260506032007 | 57 | 300 | 1.0 | 11.0 | 0.00 | 0.00 | 0.00 | 81 | 1013.2 |
| 20260506031505 | 57 | 225 | 3.0 | 14.0 | 0.00 | 0.00 | 0.00 | 81 | 1013.3 |
| 20260506031003 | 57 | 218 | 2.0 | 15.0 | 0.00 | 0.00 | 0.00 | 81 | 1013.2 |
| 20260506030504 | 57 | 261 | 4.0 | 15.0 | 0.00 | 0.00 | 0.00 | 81 | 1013.1 |
| 20260506030008 | 57 | 286 | 1.0 | 10.0 | 0.00 | 0.00 | 0.00 | 81 | 1013.2 |
| 20260506025509 | 57 | 264 | 3.0 | 10.0 | 0.00 | 0.00 | 0.00 | 81 | 1013.3 |
| 20260506025005 | 57 | 265 | 1.0 | 10.0 | 0.00 | 0.00 | 0.00 | 81 | 1013.3 |
| 20260506024518 | 58 | 224 | 3.0 | 10.0 | 0.00 | 0.00 | 0.00 | 81 | 1013.3 |
| 20260506024007 | 58 | 300 | 2.0 | 9.0 | 0.00 | 0.00 | 0.00 | 81 | 1013.4 |
| 20260506023508 | 58 | 222 | 2.0 | 9.0 | 0.00 | 0.00 | 0.00 | 81 | 1013.4 |
| 20260506023023 | 58 | 185 | 2.0 | 11.0 | 0.00 | 0.00 | 0.00 | 81 | 1013.3 |
| 20260506022509 | 58 | 213 | 2.0 | 11.0 | 0.00 | 0.00 | 0.00 | 80 | 1013.2 |
| 20260506022009 | 58 | 235 | 2.0 | 7.0 | 0.00 | 0.00 | 0.00 | 80 | 1013.3 |
| 20260506021504 | 58 | 173 | 1.0 | 6.0 | 0.00 | 0.00 | 0.00 | 80 | 1013.1 |
| 20260506021005 | 58 | 229 | 1.0 | 6.0 | 0.00 | 0.00 | 0.00 | 80 | 1013.1 |
| 20260506020508 | 58 | 321 | 1.0 | 9.0 | 0.00 | 0.00 | 0.00 | 80 | 1013.2 |
| 20260506020012 | 58 | 114 | 1.0 | 9.0 | 0.00 | 0.00 | 0.00 | 80 | 1013.1 |
| 20260506015504 | 58 | 231 | 0.0 | 5.0 | 0.00 | 0.00 | 0.00 | 80 | 1013.2 |
| 20260506015004 | 58 | 154 | 1.0 | 5.0 | 0.00 | 0.00 | 0.00 | 80 | 1013.2 |
| 20260506014520 | 58 | 214 | 1.0 | 5.0 | 0.00 | 0.00 | 0.00 | 79 | 1013.1 |
| 20260506014009 | 58 | 269 | 1.0 | 8.0 | 0.00 | 0.00 | 0.00 | 79 | 1013.1 |
| 20260506013507 | 58 | 178 | 0.0 | 9.0 | 0.00 | 0.00 | 0.00 | 78 | 1012.9 |
| 20260506013027 | 58 | 227 | 1.0 | 9.0 | 0.00 | 0.00 | 0.00 | 78 | 1012.9 |
| 20260506012509 | 58 | 232 | 2.0 | 9.0 | 0.00 | 0.00 | 0.00 | 77 | 1012.9 |
| 20260506012006 | 58 | 336 | 4.0 | 8.0 | 0.00 | 0.00 | 0.00 | 77 | 1012.7 |
| 20260506011509 | 58 | 16 | 3.0 | 9.0 | 0.00 | 0.00 | 0.00 | 77 | 1012.7 |
| 20260506011003 | 59 | 225 | 3.0 | 9.0 | 0.00 | 0.00 | 0.00 | 76 | 1012.6 |
| 20260506010503 | 59 | 211 | 2.0 | 7.0 | 0.00 | 0.00 | 0.00 | 76 | 1012.6 |
| 20260506010012 | 59 | 265 | 2.0 | 8.0 | 0.00 | 0.00 | 0.00 | 76 | 1012.6 |
| 20260506005505 | 60 | 242 | 1.0 | 12.0 | 0.00 | 0.00 | 0.00 | 75 | 1012.7 |
| 20260506005010 | 60 | 280 | 3.0 | 12.0 | 0.00 | 0.00 | 0.00 | 75 | 1012.4 |
| 20260506004520 | 60 | 209 | 3.0 | 10.0 | 0.00 | 0.00 | 0.00 | 74 | 1012.4 |
| 20260506004010 | 60 | 230 | 2.0 | 11.0 | 0.00 | 0.00 | 0.00 | 74 | 1012.3 |
| 20260506003509 | 60 | 229 | 1.0 | 11.0 | 0.00 | 0.00 | 0.00 | 74 | 1012.2 |
| 20260506003024 | 60 | 290 | 3.0 | 9.0 | 0.00 | 0.00 | 0.00 | 74 | 1012.2 |
| 20260506002508 | 60 | 204 | 3.0 | 10.0 | 0.00 | 0.00 | 0.00 | 74 | 1012.1 |
| 20260506002004 | 60 | 283 | 3.0 | 11.0 | 0.00 | 0.00 | 0.00 | 74 | 1012.1 |
| 20260506001512 | 60 | 299 | 3.0 | 11.0 | 0.00 | 0.00 | 0.00 | 74 | 1011.9 |
| 20260506001005 | 60 | 277 | 3.0 | 11.0 | 0.00 | 0.00 | 0.00 | 74 | 1012.0 |
| 20260506000504 | 60 | 255 | 3.0 | 11.0 | 0.00 | 0.00 | 0.00 | 75 | 1012.0 |
| 20260506000014 | 60 | 242 | 2.0 | 11.0 | 0.00 | 0.00 | 0.00 | 75 | 1011.9 |
| 20260505235507 | 59 | 205 | 3.0 | 10.0 | 0.00 | 0.00 | 0.00 | 75 | 1011.8 |
| 20260505235007 | 59 | 278 | 2.0 | 10.0 | 0.00 | 0.00 | 0.00 | 75 | 1011.2 |
| 20260505234546 | 60 | 286 | 3.0 | 10.0 | 0.00 | 0.00 | 0.00 | 75 | 1011.4 |
| 20260505234009 | 60 | 267 | 3.0 | 10.0 | 0.00 | 0.00 | 0.00 | 75 | 1011.4 |
| 20260505233508 | 60 | 130 | 3.0 | 10.0 | 0.00 | 0.00 | 0.00 | 75 | 1011.4 |
| 20260505233028 | 60 | 11 | 2.0 | 9.0 | 0.00 | 0.00 | 0.00 | 75 | 1011.3 |
| 20260505232506 | 60 | 202 | 2.0 | 9.0 | 0.00 | 0.00 | 0.00 | 75 | 1011.2 |
| 20260505232004 | 59 | 259 | 3.0 | 11.0 | 0.00 | 0.00 | 0.00 | 75 | 1011.2 |
| 20260505231515 | 59 | 259 | 3.0 | 11.0 | 0.00 | 0.00 | 0.00 | 76 | 1011.3 |
| 20260505231004 | 59 | 226 | 5.0 | 12.0 | 0.00 | 0.00 | 0.00 | 75 | 1011.4 |
| 20260505230505 | 59 | 232 | 2.0 | 12.0 | 0.00 | 0.00 | 0.00 | 75 | 1011.2 |
| 20260505230020 | 60 | 324 | 2.0 | 12.0 | 0.00 | 0.00 | 0.00 | 75 | 1011.2 |
| 20260505225509 | 60 | 171 | 3.0 | 12.0 | 0.00 | 0.00 | 0.00 | 75 | 1011.2 |
| 20260505225011 | 60 | 345 | 2.0 | 11.0 | 0.00 | 0.00 | 0.00 | 74 | 1011.0 |
| 20260505224529 | 60 | 222 | 4.0 | 13.0 | 0.00 | 0.00 | 0.00 | 74 | 1011.0 |
| 20260505224005 | 60 | 165 | 3.0 | 16.0 | 0.00 | 0.00 | 0.00 | 74 | 1011.0 |
| 20260505223504 | 60 | 250 | 3.0 | 16.0 | 0.00 | 0.00 | 0.00 | 73 | 1011.1 |
| 20260505223012 | 61 | 187 | 4.0 | 12.0 | 0.00 | 0.00 | 0.00 | 73 | 1011.1 |
| 20260505222505 | 61 | 219 | 3.0 | 16.0 | 0.00 | 0.00 | 0.00 | 73 | 1010.9 |
| 20260505222008 | 61 | 194 | 5.0 | 16.0 | 0.00 | 0.00 | 0.00 | 73 | 1010.9 |
| 20260505221517 | 61 | 86 | 4.0 | 13.0 | 0.00 | 0.00 | 0.00 | 73 | 1011.1 |
| 20260505221005 | 61 | 181 | 3.0 | 12.0 | 0.00 | 0.00 | 0.00 | 73 | 1010.9 |
| 20260505220507 | 60 | 166 | 2.0 | 16.0 | 0.00 | 0.00 | 0.00 | 74 | 1010.8 |
| 20260505220026 | 60 | 188 | 3.0 | 16.0 | 0.00 | 0.00 | 0.00 | 73 | 1010.9 |
| 20260505215508 | 60 | 184 | 6.0 | 16.0 | 0.00 | 0.00 | 0.00 | 72 | 1010.8 |
| 20260505215005 | 61 | 254 | 3.0 | 9.0 | 0.00 | 0.00 | 0.00 | 72 | 1010.7 |
| 20260505214504 | 61 | 235 | 2.0 | 9.0 | 0.00 | 0.00 | 0.00 | 72 | 1010.7 |
| 20260505214005 | 61 | 111 | 2.0 | 12.0 | 0.00 | 0.00 | 0.00 | 71 | 1010.6 |
| 20260505213506 | 61 | 264 | 4.0 | 12.0 | 0.00 | 0.00 | 0.00 | 71 | 1010.7 |
| 20260505213013 | 61 | 292 | 2.0 | 10.0 | 0.00 | 0.00 | 0.00 | 71 | 1010.4 |
| 20260505212506 | 61 | 65 | 3.0 | 13.0 | 0.00 | 0.00 | 0.00 | 70 | 1010.6 |
| 20260505212009 | 62 | 224 | 3.0 | 13.0 | 0.00 | 0.00 | 0.00 | 70 | 1010.4 |
| 20260505211518 | 62 | 246 | 4.0 | 14.0 | 0.00 | 0.00 | 0.00 | 70 | 1010.3 |
| 20260505211009 | 62 | 218 | 3.0 | 15.0 | 0.00 | 0.00 | 0.00 | 69 | 1010.2 |
| 20260505210510 | 62 | 200 | 3.0 | 15.0 | 0.00 | 0.00 | 0.00 | 69 | 1010.2 |
| 20260505210028 | 62 | 106 | 4.0 | 12.0 | 0.00 | 0.00 | 0.00 | 68 | 1010.4 |
| 20260505205504 | 63 | 265 | 3.0 | 9.0 | 0.00 | 0.00 | 0.00 | 69 | 1010.2 |
| 20260505205004 | 62 | 191 | 2.0 | 9.0 | 0.00 | 0.00 | 0.00 | 70 | 1010.3 |
| 20260505204513 | 62 | 360 | 3.0 | 9.0 | 0.00 | 0.00 | 0.00 | 70 | 1010.4 |
| 20260505204004 | 62 | 290 | 3.0 | 9.0 | 0.00 | 0.00 | 0.00 | 69 | 1010.4 |
| 20260505203505 | 63 | 135 | 3.0 | 12.0 | 0.00 | 0.00 | 0.00 | 69 | 1010.6 |
| 20260505203012 | 63 | 221 | 2.0 | 12.0 | 0.00 | 0.00 | 0.00 | 69 | 1010.6 |
| 20260505202507 | 63 | 140 | 3.0 | 10.0 | 0.00 | 0.00 | 0.00 | 68 | 1010.7 |
| 20260505202009 | 64 | 186 | 3.0 | 10.0 | 0.00 | 0.00 | 0.00 | 69 | 1010.6 |
| 20260505201527 | 63 | 223 | 2.0 | 8.0 | 0.00 | 0.00 | 0.00 | 69 | 1010.8 |
| 20260505201009 | 63 | 200 | 2.0 | 8.0 | 0.00 | 0.00 | 0.00 | 69 | 1010.8 |
| 20260505200510 | 63 | 186 | 2.0 | 8.0 | 0.00 | 0.00 | 0.00 | 70 | 1010.8 |
| 20260505200026 | 63 | 261 | 3.0 | 8.0 | 0.00 | 0.00 | 0.00 | 70 | 1011.0 |
| 20260505195502 | 63 | 159 | 0.0 | 8.0 | 0.00 | 0.00 | 0.00 | 70 | 1010.9 |
| 20260505195005 | 63 | 224 | 3.0 | 8.0 | 0.00 | 0.00 | 0.00 | 70 | 1011.0 |
| 20260505194513 | 64 | 251 | 1.0 | 12.0 | 0.00 | 0.00 | 0.00 | 68 | 1011.2 |
| 20260505194007 | 64 | 197 | 4.0 | 12.0 | 0.00 | 0.00 | 0.00 | 68 | 1011.2 |
| 20260505193506 | 63 | 240 | 0.0 | 12.0 | 0.00 | 0.00 | 0.00 | 70 | 1011.1 |
| 20260505193018 | 63 | 189 | 4.0 | 12.0 | 0.00 | 0.00 | 0.00 | 69 | 1011.1 |
| 20260505192510 | 63 | 206 | 2.0 | 8.0 | 0.00 | 0.00 | 0.00 | 70 | 1011.3 |
| 20260505192006 | 63 | 188 | 4.0 | 10.0 | 0.00 | 0.00 | 0.00 | 71 | 1011.4 |
| 20260505191524 | 62 | 205 | 5.0 | 10.0 | 0.00 | 0.00 | 0.00 | 71 | 1011.5 |
| 20260505191011 | 63 | 182 | 2.0 | 17.0 | 0.00 | 0.00 | 0.00 | 71 | 1011.5 |
| 20260505190509 | 62 | 237 | 1.0 | 17.0 | 0.00 | 0.00 | 0.00 | 72 | 1011.8 |
| 20260505190008 | 62 | 196 | 3.0 | 10.0 | 0.00 | 0.00 | 0.00 | 71 | 1011.9 |
| 20260505185504 | 62 | 231 | 2.0 | 10.0 | 0.00 | 0.00 | 0.00 | 71 | 1011.9 |
| 20260505185004 | 63 | 193 | 3.0 | 10.0 | 0.00 | 0.00 | 0.00 | 70 | 1012.1 |
| 20260505184523 | 63 | 221 | 4.0 | 10.0 | 0.00 | 0.00 | 0.00 | 69 | 1012.1 |
| 20260505184007 | 63 | 79 | 0.0 | 6.0 | 0.00 | 0.00 | 0.00 | 69 | 1012.0 |
| 20260505183506 | 64 | 244 | 2.0 | 10.0 | 0.00 | 0.00 | 0.00 | 69 | 1012.3 |
| 20260505183038 | 63 | 189 | 4.0 | 11.0 | 0.00 | 0.00 | 0.00 | 69 | 1012.2 |
| 20260505182507 | 63 | 196 | 4.0 | 11.0 | 0.00 | 0.00 | 0.00 | 70 | 1012.1 |
| 20260505182014 | 63 | 122 | 2.0 | 10.0 | 0.00 | 0.00 | 0.00 | 70 | 1012.2 |
| 20260505181525 | 63 | 187 | 2.0 | 9.0 | 0.00 | 0.00 | 0.00 | 70 | 1012.3 |
| 20260505181015 | 64 | 328 | 3.0 | 11.0 | 0.00 | 0.00 | 0.00 | 69 | 1012.4 |
| 20260505180509 | 64 | 234 | 1.0 | 11.0 | 0.00 | 0.00 | 0.00 | 70 | 1012.3 |
| 20260505180012 | 64 | 296 | 1.0 | 10.0 | 0.00 | 0.00 | 0.00 | 69 | 1012.3 |
| 20260505175506 | 64 | 166 | 0.0 | 9.0 | 0.00 | 0.00 | 0.00 | 70 | 1012.3 |
| 20260505175008 | 64 | 160 | 2.0 | 8.0 | 0.00 | 0.00 | 0.00 | 71 | 1012.3 |
| 20260505174516 | 63 | 252 | 2.0 | 10.0 | 0.00 | 0.00 | 0.00 | 71 | 1012.4 |
| 20260505174008 | 63 | 195 | 4.0 | 10.0 | 0.00 | 0.00 | 0.00 | 70 | 1012.4 |
| 20260505173509 | 64 | 223 | 4.0 | 9.0 | 0.00 | 0.00 | 0.00 | 70 | 1012.5 |
| 20260505173023 | 63 | 193 | 4.0 | 9.0 | 0.00 | 0.00 | 0.00 | 72 | 1012.5 |